timestamp,surface_pressure_avg,surface_temp_avg,battery_voltage,lat,long
2023-01-31 00:09:00+00:00,216.1948,2.0,12.57,47.84626,-54.09684
2023-01-31 00:19:00+00:00,219.7348,2.01,12.57,47.84626,-54.09684
2023-01-31 00:29:00+00:00,220.4281,2.06,12.57,47.84626,-54.09684
2023-01-31 00:39:00+00:00,212.1381,2.09,12.57,47.84626,-54.09684
2023-01-31 00:49:00+00:00,210.3731,2.1,12.57,47.84626,-54.09684
2023-01-31 00:59:00+00:00,215.5614,2.1,12.57,47.84626,-54.09684
2023-01-31 01:09:00+00:00,211.0314,2.0,12.57,47.84626,-54.09684
2023-01-31 01:19:00+00:00,205.1448,1.9,12.57,47.84626,-54.09684
2023-01-31 01:29:00+00:00,208.5414,1.9,12.57,47.84626,-54.09684
2023-01-31 01:39:00+00:00,210.7431,1.9,12.57,47.84626,-54.09684
2023-01-31 01:49:00+00:00,205.6115,1.9,12.57,47.84626,-54.09684
2023-01-31 01:59:00+00:00,204.1198,1.9,12.57,47.84626,-54.09684
2023-01-31 02:09:00+00:00,211.1081,1.9,12.57,47.84626,-54.09684
2023-01-31 02:19:00+00:00,214.8531,1.9,12.57,47.84626,-54.09684
2023-01-31 02:29:00+00:00,212.4464,1.99,12.57,47.84626,-54.09684
2023-01-31 02:39:00+00:00,211.6047,2.07,12.57,47.84626,-54.09684
2023-01-31 02:49:00+00:00,217.8115,2.2,12.57,47.84626,-54.09684
2023-01-31 02:59:00+00:00,221.1964,2.2,12.57,47.84626,-54.09684
2023-01-31 03:09:00+00:00,218.7197,2.1,12.57,47.84626,-54.09684
2023-01-31 03:19:01+00:00,223.4615,2.1,12.57,47.84626,-54.09684
2023-01-31 03:29:01+00:00,232.3248,2.19,12.57,47.84626,-54.09684
2023-01-31 03:39:01+00:00,231.4998,2.2,12.57,47.84626,-54.09684
2023-01-31 03:49:01+00:00,232.4948,2.06,12.57,47.84626,-54.09684
2023-01-31 03:59:01+00:00,242.4531,2.0,12.57,47.84626,-54.09684
2023-01-31 04:09:01+00:00,247.2831,2.0,12.57,47.84626,-54.09684
2023-01-31 04:19:00+00:00,248.0631,2.0,12.57,47.84626,-54.09684
2023-01-31 04:29:00+00:00,254.1297,2.0,12.57,47.84626,-54.09684
2023-01-31 04:39:00+00:00,262.9047,2.13,12.57,47.84626,-54.09684
2023-01-31 04:49:00+00:00,265.3647,2.1,12.57,47.84626,-54.09684
2023-01-31 04:59:00+00:00,270.6864,2.13,12.57,47.84626,-54.09684
2023-01-31 05:09:00+00:00,283.9998,2.29,12.57,47.84626,-54.09684
2023-01-31 05:19:01+00:00,296.9797,2.3,12.57,47.84626,-54.09684
2023-01-31 05:29:01+00:00,295.6197,2.29,12.57,47.84626,-54.09684
2023-01-31 05:39:01+00:00,298.173,2.26,12.57,47.84626,-54.09684
2023-01-31 05:49:01+00:00,304.1213,2.24,12.57,47.84626,-54.09684
2023-01-31 05:59:01+00:00,307.088,2.25,12.57,47.84626,-54.09684
2023-01-31 06:09:01+00:00,305.093,2.2,12.57,47.84626,-54.09684
2023-01-31 06:19:01+00:00,308.3463,2.2,12.57,47.84626,-54.09684
2023-01-31 06:29:01+00:00,312.4214,2.2,12.57,47.84626,-54.09684
2023-01-31 06:39:01+00:00,314.7813,2.2,12.57,47.84626,-54.09684
2023-01-31 06:49:01+00:00,315.6813,2.2,12.57,47.84626,-54.09684
2023-01-31 06:59:01+00:00,319.1013,2.2,12.57,47.84626,-54.09684
2023-01-31 07:09:01+00:00,321.623,2.19,12.57,47.84626,-54.09684
2023-01-31 07:19:01+00:00,324.6846,2.16,12.57,47.84626,-54.09684
2023-01-31 07:29:01+00:00,325.9946,2.15,12.57,47.84626,-54.09684
2023-01-31 07:39:01+00:00,323.4796,2.17,12.57,47.84626,-54.09684
2023-01-31 07:49:01+00:00,323.8297,2.2,12.57,47.84626,-54.09684
2023-01-31 07:59:01+00:00,325.3914,2.2,12.57,47.84626,-54.09684
2023-01-31 08:09:01+00:00,324.3796,2.2,12.57,47.84626,-54.09684
2023-01-31 08:19:01+00:00,321.3929,2.2,12.57,47.84626,-54.09684
2023-01-31 08:29:01+00:00,322.1263,2.2,12.57,47.84626,-54.09684
2023-01-31 08:39:01+00:00,320.08799999999997,2.2,12.57,47.84626,-54.09684
2023-01-31 08:49:01+00:00,314.1697,2.2,12.57,47.84626,-54.09684
2023-01-31 08:59:01+00:00,312.0764,2.2,12.57,47.84626,-54.09684
2023-01-31 09:09:01+00:00,313.7614,2.2,12.57,47.84626,-54.09684
2023-01-31 09:19:01+00:00,311.263,2.2,12.57,47.84626,-54.09684
2023-01-31 09:29:01+00:00,300.7029,2.2,12.57,47.84626,-54.09684
2023-01-31 09:39:01+00:00,296.4347,2.2,12.57,47.84626,-54.09684
2023-01-31 09:49:01+00:00,293.903,2.2,12.57,47.84626,-54.09684
2023-01-31 09:59:01+00:00,289.658,2.2,12.57,47.84626,-54.09684
2023-01-31 10:09:01+00:00,284.4014,2.2,12.57,47.84626,-54.09684
2023-01-31 10:19:01+00:00,282.6647,2.2,12.57,47.84626,-54.09684
2023-01-31 10:29:01+00:00,279.0763,2.2,12.57,47.84626,-54.09684
2023-01-31 10:39:01+00:00,274.3981,2.2,12.57,47.84626,-54.09684
2023-01-31 10:49:01+00:00,274.1281,2.2,12.57,47.84626,-54.09684
2023-01-31 10:59:01+00:00,271.7581,2.23,12.57,47.84626,-54.09684
2023-01-31 11:09:01+00:00,268.4398,2.25,12.57,47.84626,-54.09684
2023-01-31 11:19:01+00:00,261.5364,2.24,12.57,47.84626,-54.09684
2023-01-31 11:29:01+00:00,260.6248,2.25,12.57,47.84626,-54.09684
2023-01-31 11:39:01+00:00,261.0181,2.25,12.57,47.84626,-54.09684
2023-01-31 11:49:01+00:00,258.4297,2.25,12.57,47.84626,-54.09684
2023-01-31 11:59:01+00:00,252.8764,2.25,12.57,47.84626,-54.09684
2023-01-31 12:09:01+00:00,254.2347,2.26,12.57,47.84626,-54.09684
2023-01-31 12:19:01+00:00,255.3181,2.27,12.57,47.84626,-54.09684
2023-01-31 12:29:01+00:00,252.7348,2.24,12.57,47.84626,-54.09684
2023-01-31 12:39:01+00:00,246.4081,2.25,12.57,47.84626,-54.09684
2023-01-31 12:49:01+00:00,243.7747,2.25,12.57,47.84626,-54.09684
2023-01-31 12:59:01+00:00,243.9531,2.2,12.57,47.84626,-54.09684
2023-01-31 13:09:01+00:00,242.4064,2.2,12.57,47.84626,-54.09684
2023-01-31 13:19:01+00:00,240.3464,2.2,12.57,47.84626,-54.09684
2023-01-31 13:29:01+00:00,238.2631,2.2,12.57,47.84626,-54.09684
2023-01-31 13:39:01+00:00,234.6414,2.2,12.57,47.84626,-54.09684
2023-01-31 13:49:01+00:00,229.7731,2.2,12.57,47.84626,-54.09684
2023-01-31 13:59:01+00:00,232.1431,2.2,12.57,47.84626,-54.09684
2023-01-31 14:09:01+00:00,237.3231,2.2,12.57,47.84626,-54.09684
2023-01-31 14:19:00+00:00,237.0847,2.2,12.57,47.84626,-54.09684
2023-01-31 14:29:00+00:00,237.0297,2.2,12.57,47.84626,-54.09684
2023-01-31 14:39:00+00:00,239.528,2.2,12.57,47.84626,-54.09684
2023-01-31 14:49:00+00:00,239.4931,2.26,12.57,47.84626,-54.09684
2023-01-31 14:59:00+00:00,232.6581,2.2,12.57,47.84626,-54.09684
2023-01-31 15:09:00+00:00,229.9431,2.2,12.57,47.84626,-54.09684
2023-01-31 15:19:01+00:00,234.4031,2.2,12.65,47.84626,-54.09684
2023-01-31 15:29:01+00:00,237.8031,2.2,12.65,47.84626,-54.09684
2023-01-31 15:39:01+00:00,234.5397,2.2,12.65,47.84626,-54.09684
2023-01-31 15:49:01+00:00,234.6431,2.2,12.65,47.84626,-54.09684
2023-01-31 15:59:01+00:00,242.8931,2.2,12.65,47.84626,-54.09684
2023-01-31 16:09:01+00:00,245.8197,2.24,12.65,47.84626,-54.09684
2023-01-31 16:19:00+00:00,243.9781,2.25,12.81,47.84626,-54.09684
2023-01-31 16:29:00+00:00,243.7381,2.26,12.81,47.84626,-54.09684
2023-01-31 16:39:00+00:00,251.9714,2.23,12.81,47.84626,-54.09684
2023-01-31 16:49:00+00:00,258.4481,2.26,12.81,47.84626,-54.09684
2023-01-31 16:59:00+00:00,259.9614,2.26,12.81,47.84626,-54.09684
2023-01-31 17:09:00+00:00,261.0314,2.23,12.81,47.84626,-54.09684
2023-01-31 17:19:00+00:00,266.428,2.26,12.81,47.84626,-54.09684
2023-01-31 17:29:00+00:00,272.1814,2.3,12.81,47.84626,-54.09684
2023-01-31 17:39:00+00:00,275.3713,2.3,12.81,47.84626,-54.09684
2023-01-31 17:49:00+00:00,281.7931,2.3,12.81,47.84626,-54.09684
2023-01-31 17:59:00+00:00,289.1764,2.3,12.81,47.84626,-54.09684
2023-01-31 18:09:00+00:00,291.2631,2.3,12.81,47.84626,-54.09684
2023-01-31 18:19:00+00:00,284.33799999999997,2.29,12.65,47.84626,-54.09684
2023-01-31 18:29:00+00:00,280.5081,2.22,12.65,47.84626,-54.09684
2023-01-31 18:39:00+00:00,285.9014,2.23,12.65,47.84626,-54.09684
2023-01-31 18:49:00+00:00,294.1613,2.3,12.65,47.84626,-54.09684
2023-01-31 18:59:00+00:00,294.6613,2.29,12.65,47.84626,-54.09684
2023-01-31 19:09:00+00:00,292.7414,2.27,12.65,47.84626,-54.09684
2023-01-31 19:19:00+00:00,296.3698,2.3,12.65,47.84626,-54.09684
2023-01-31 19:29:00+00:00,299.373,2.3,12.65,47.84626,-54.09684
2023-01-31 19:39:00+00:00,299.4847,2.3,12.65,47.84626,-54.09684
2023-01-31 19:49:00+00:00,296.033,2.26,12.65,47.84626,-54.09684
2023-01-31 19:59:00+00:00,298.5148,2.2,12.65,47.84626,-54.09684
2023-01-31 20:09:00+00:00,305.0314,2.2,12.65,47.84626,-54.09684
2023-01-31 20:19:00+00:00,308.253,2.22,12.57,47.84626,-54.09684
2023-01-31 20:29:00+00:00,302.9197,2.2,12.57,47.84626,-54.09684
2023-01-31 20:39:00+00:00,301.9731,2.2,12.57,47.84626,-54.09684
2023-01-31 20:49:00+00:00,308.3147,2.3,12.57,47.84626,-54.09684
2023-01-31 20:59:00+00:00,308.7164,2.36,12.57,47.84626,-54.09684
2023-01-31 21:09:00+00:00,306.063,2.3,12.57,47.84626,-54.09684
2023-01-31 21:19:01+00:00,304.1713,2.3,12.57,47.84626,-54.09684
2023-01-31 21:29:01+00:00,302.7814,2.3,12.57,47.84626,-54.09684
2023-01-31 21:39:01+00:00,294.4164,2.29,12.57,47.84626,-54.09684
2023-01-31 21:49:01+00:00,294.2897,2.2,12.57,47.84626,-54.09684
2023-01-31 21:59:01+00:00,293.8364,2.2,12.57,47.84626,-54.09684
2023-01-31 22:09:01+00:00,292.6564,2.2,12.57,47.84626,-54.09684
2023-01-31 22:19:01+00:00,289.8897,2.3,12.57,47.84626,-54.09684
2023-01-31 22:29:01+00:00,292.6931,2.3,12.57,47.84626,-54.09684
2023-01-31 22:39:01+00:00,293.9163,2.3,12.57,47.84626,-54.09684
2023-01-31 22:49:01+00:00,290.5897,2.4,12.57,47.84626,-54.09684
2023-01-31 22:59:01+00:00,285.4763,2.4,12.57,47.84626,-54.09684
2023-01-31 23:09:01+00:00,283.703,2.4,12.57,47.84626,-54.09684
2023-01-31 23:19:00+00:00,276.9414,2.4,12.57,47.84626,-54.09684
2023-01-31 23:29:00+00:00,271.5631,2.38,12.57,47.84626,-54.09684
2023-01-31 23:39:00+00:00,271.108,2.3,12.57,47.84626,-54.09684
2023-01-31 23:49:00+00:00,271.9615,2.3,12.57,47.84626,-54.09684
2023-01-31 23:59:00+00:00,268.7864,2.3,12.57,47.84626,-54.09684
